Powrót do katalogu

SL-14 DEB

AktywnyPO
NORAD 45338·DEBRIS·🇷🇺 Russia

Wystrzelony Aug 15, 1991 z Plesetsk Cosmodrome

Loading…

Następne Przeloty (najbliższe 24 godziny)

TLE

ŚwieżeSource: Space-Track

Epoka: Sep 13, 2026, 21:08 UTC

1 45338U 91056CC  26256.88088069  .00008706  00000-0  73154-2 0  9995
2 45338  82.5625 313.9698 0140808 138.0238 223.1818 13.83419548323995

Śledź SL-14 DEB w czasie rzeczywistym z AllMySat

Download on the App Store